Location: Stockholm
(59.3333°N, 18.0500°E)
Time: 01:32:40
(UTC+02:00)

ISS - Pass Details

Date: 25 March 2021
Orbit: 418 x 421 km, 51.6° (Epoch: 07 May)

Event Time Altitude Azimuth Distance (km) Brightness Sun altitude
Rises 20:22:51 0° 254° (WSW) 2,371 0.7 -16.1°
Reaches altitude 10° 20:25:15 10° 239° (WSW) 1,505 -0.6 -16.3°
Enters shadow 20:27:50 22° 188° (S) 990 -2.1 -16.6°
